www.pogodaiklimat.ru

Погода и климат >> Архив погоды >> Россия >> Хакасия >> Коммунар


ПОГОДА в Коммунаре

  • Прогноз погоды в Коммунаре
  • Монитор погоды в Коммунаре

АРХИВ ПОГОДЫ в Коммунаре

Время (UTC), дата Ветер
(напр.,м/с)
 
Видим.   Явления Облачность Т
(С)
Тd
(С)
f
(%)
Тe
(С)
Тes
(С)
Комфортность P
(гПа)
Po
(гПа)
Тmin
(С)
Tmax
(С)
R
(мм)
R24
(мм)
S
(см)
15 19.03 штиль 0 н/о слаб. ливневой снег 9/3 600 м
[Cb cap Ci fib]
-6.1 -11.5 66 -7 -7 1031.3 926.5
18 19.03 штиль 0 н/о слаб. ливневой снег 8/3 600 м
[Cb cap Ci fib]
-7.2 -10.6 77 -8 -8 1032.1 926.8
21 19.03 штиль 0 н/о слаб. ливневой снег 8/4 600 м
[Cb cap Ac trans Ci fib]
-8.7 -11.6 79 -9 -9 1033.1 927.2
00 20.03 штиль 0 50 км {ливн. осадки} 8/6 600 м
[Sc Ac trans]
-12.1 -13.4 90 -12 -12 1035.6 928.1 -12.1 0.0 52
03 20.03 В 1 50 км слаб. снег 9/9 600 м
[Sc]
-7.6 -11.1 76 -10 -9 1034.9 929.3
06 20.03 В 1 50 км слаб. снег 9/9 600 м
[Sc]
-3.7 -9.0 67 -6 -5 1033.5 929.4
09 20.03 В 2 50 км слаб. ливневой снег 10/10 600 м
[Cb cap]
-3.2 -8.4 67 -7 -7 1033.5 929.5
12 20.03 штиль 0 50 км слаб. ливневой снег 8/8 600 м
[Cb cap]
-4.0 -7.3 78 -5 -5 1034.3 930.1 -2.3 0.2
15 20.03 штиль 0 н/о {ливн. осадки} 8/8 600 м
[Sc]
-7.0 -8.7 88 -8 -8 1036.3 930.7
18 20.03 штиль 0 н/о {ливн. осадки} ясно -10.9 -11.5 95 -11 -11 1037.3 930.1
21 20.03 штиль 0 н/о ясно -11.8 -12.4 95 -12 -12 1037.1 929.5
00 21.03 штиль 0 50 км ясно -12.5 -13.1 95 -13 -13 1037.4 929.5 -12.5 0.3 53
03 21.03 СЗ 1 50 км 4/0
[Ci fib]
-6.7 -10.0 77 -9 -5 1035.0 929.6
06 21.03 СВ 1 50 км 3/0
[Ci fib]
+1.4 -9.6 44 0 +9 1031.1 929.1
09 21.03 СВ 2 50 км 4/0
[Ci fib]
+4.8 -10.3 33 +3 +7 1028.5 927.9
12 21.03 ЮЗ 1 50 км 6/0
[Ci fib]
-1.2 -10.8 48 -3 -3 1030.9 928.0 +5.0
15 21.03 штиль 0 н/о 8/0
[Ci fib]
-4.3 -9.0 70 -5 -5 1032.1 927.9
18 21.03 С 1 н/о 8/0
[Ci fib]
-6.6 -9.4 80 -9 -9 1032.2 927.2
21 21.03 СЗ 1 н/о 8/0
[Ci fib]
-7.8 -10.0 84 -10 -10 1031.4 926.0
00 22.03 СВ 1 50 км 6/0
[Ci fib]
-6.9 -10.2 77 -9 -9 1030.7 925.6 -7.9 52
03 22.03 В 1 50 км ясно +0.2 -10.6 44 -1 +4 1026.9 924.8
06 22.03 ЮЗ 2 50 км 4/0
[Ci fib]
+5.0 -11.6 29 +3 +11 опасность
простуды
1024.4 924.3
09 22.03 СВ 3 50 км 6/0
[Ac trans Ci fib]
+5.6 -12.8 25 +3 +6 1023.3 923.4
12 22.03 ЮЗ 3
{10}
50 км 8/0
[Ac trans Ci fib]
+3.4 -12.6 30 +1 +1 1023.2 922.5 +5.6
15 22.03 ЮЗ 2 н/о 8/0
[Ac trans Ci fib]
+1.2 -11.6 38 -1 -1 1023.3 922.0
18 22.03 Ю 2 н/о 9/0
[Ac trans Ci fib]
+1.0 -12.2 37 -1 -1 1022.6 921.2
21 22.03 ЮЗ 3
{12}
н/о 8/0
[Ac trans Ci fib]
+0.8 -12.6 36 -3 -3 1022.4 920.9
00 23.03 Ю 3
{10}
50 км 9/0
[Ac trans Ci fib]
-0.4 -12.2 40 -4 -4 1022.5 920.6 -0.4 51
03 23.03 ЮЗ 3-10
{12}
50 км 8/0
[Cc]
+2.2 -11.5 36 -1 +2 1022.1 921.2
06 23.03 Ю 4-10
{14}
50 км 3/0
[Ci fib]
+5.5 -10.0 32 +2 +8 1020.8 921.2
09 23.03 Ю 3-10
{12}
50 км ясно +6.5 -10.7 28 +4 +8 1019.2 920.1
12 23.03 ЮЗ 2
{10}
50 км 1/1 600 м
[Sc]
+3.7 -11.4 32 +2 +2 1019.9 919.8 +6.7
15 23.03 Ю 1 н/о ясно +0.2 -11.2 42 -1 -1 1021.4 919.9
18 23.03 Ю 2 н/о 3/3 600 м
[Sc]
+1.0 -10.3 43 -2 -2 1020.3 919.2
21 23.03 Ю 3 50 км ясно +0.2 -10.6 44 -4 -4 1019.7 918.4 -0.6 51
00 24.03 Ю 3 50 км ясно 0.0 -9.9 47 -4 -4 1019.2 917.8 -0.6 51
03 24.03 Ю 4-10
{12}
50 км 3/0
[Ac trans]
+3.0 -7.9 45 -1 +2 1017.3 917.2
06 24.03 Ю 5-10
{14}
50 км 8/0
[Ac trans]
+5.0 -7.4 40 +1 +3 1017.1 917.7
09 24.03 З 4
{12}
50 км 6/0
[Ac lent Cc]
+6.0 -8.4 35 +3 +6 1016.2 917.2
12 24.03 ЮЗ 5-12
{14}
50 км в посл. час ливневой снег 8/3 600 м
[Cb cap Ac lent Ci fib]
+0.3 -5.1 67 -5 -5 1018.3 917.2 +7.1 0.0
15 24.03 З 3 н/о слаб. ливневой снег 8/8 600 м
[Cb cap]
+0.2 -2.1 85 -4 -4 1018.7 917.5
18 24.03 З 2 н/о слаб. ливневой снег 9/9 600 м
[Cb cap]
+0.2 -2.4 83 -3 -3 1017.8 916.7
21 24.03 ЮЗ 2 н/о слаб. ливневой снег 10/10 600 м
[Cb cap]
-0.6 -2.4 88 -4 -4 1018.1 916.7
00 25.03 Ю 1 50 км слаб. ливневой снег 9/8 600 м
[Cb cap Ac trans]
-0.8 -3.0 85 -3 -3 1019.1 917.5 -0.9 0.5 48
03 25.03 СВ 1 4000 м слаб. ливневой снег 10/8 600 м
[Cb cap Ac und]
-0.4 -2.2 88 -2 -2 1020.1 918.5
06 25.03 СВ 2 1000 м ливневой снег 10/10 600 м
[Cb cap]
-1.3 -2.5 92 -5 -5 1022.7 920.6
09 25.03 СВ 1 2000 м слаб. ливневой снег 9/8 600 м
[Cb cap Ac trans]
-0.4 -2.2 88 -2 -2 1024.0 922.1
12 25.03 В 1 4000 м слаб. ливневой снег 8/6 600 м
[Cb cap Ac trans]
-2.3 -3.6 91 -5 -5 1027.4 924.5 0.0 8
15 25.03 штиль 0 н/о слаб. ливневой снег 9/8 600 м
[Cb cap Ac trans]
-4.0 -5.2 91 -5 -5 1030.8 926.9
18 25.03 ЮЗ 1 н/о слаб. ливневой снег 8/6 600 м
[Cb cap Ac trans]
-5.9 -6.7 94 -8 -8 1032.4 927.6
21 25.03 штиль 0 н/о {ливн. осадки} 9/4 600 м
[Sc Ac trans]
-7.3 -8.2 93 -8 -8 1033.5 928.1
00 26.03 З 1 50 км {ливн. осадки} 6/3 600 м
[Sc Ac trans]
-7.8 -8.8 93 -10 -10 1034.8 929.1 -7.8 0.0 64
03 26.03 штиль 0 50 км 3/3 600 м
[Sc]
-1.6 -5.7 74 -3 +2 1032.7 930.2
06 26.03 штиль 0 50 км 8/4 600 м
[Sc Ac trans]
-1.2 -8.7 57 -2 +3 1033.8 930.5
09 26.03 В 1 50 км 8/3 600 м
[Sc Ac trans]
0.0 -8.0 55 -1 +1 1032.9 930.2

 

Местоположение метеостанции Коммунар (Хакасия, Россия): широта 54.33 долгота 89.28 высота над уровнем моря 847 м.

В архиве по умолчанию представлена погода в Коммунаре за последнюю неделю. Архивные данные за месяц целиком и за предыдущие месяцы, начиная с января 2011 года, Вы можете получить, выбрав интересующий диапазон дат из раскрывающегося списка и нажав кнопку "Ввод!".


*Определитесь, кто Вы:
робот инопланетянин человек

Внимание! Время в таблицах - всемирное. Для получения местного времени необходимо прибавить поправку, которая равна 7 ч.

Смотрите также архив погоды в соседних городах и на ближайших метеорологических станциях:

Погода в Шире (Хакасия, Россия) (46 км)
Погода в Ненастной (Хакасия, Россия) (55 км)
Погода в Копьево-2 (Хакасия, Россия) (86 км)
Погода в Уйбате (Хакасия, Россия) (98 км)
Погода в Междуреченске (Кемеровская область, Россия) (106 км)
Погода в Первомайском (Хакасия, Россия) (107 км)
Погода в Ужуре (Красноярский край, Россия) (113 км)
Погода в Неожиданном (Хакасия, Россия) (118 км)
Погода в Светлолобово (Красноярский край, Россия) (131 км)
Погода в Шарыпово (Красноярский край, Россия) (134 км)

Пояснения к столбцам:

Ветер - указаны скорость ветра в м/с - средняя за 10 мин, порывы в срок и между сроками (в фигурных скобках) и направление, откуда дует ветер: С - северный, СВ - северо-восточный, В - восточный, ЮВ - юго-восточный, Ю - южный, ЮЗ - юго-западный, З - западный, СЗ - северо-западный.
Видимость - горизонтальная дальность видимости в метрах или километрах. При видимости от 1 до 10 км при отсутствии осадков обычно наблюдается дымка, при ухудшении видимости до 1 км и менее - туман. В сухую погоду видимость может ухудшаться дымом, пылью или мглою.
Явления - указаны атмосферные явления, наблюдавшиеся в срок или в последний час перед сроком; фигурными скобками обозначены явления, наблюдавшиеся между сроками (за 1-3 часа до срока); квадратными скобками обозначены град или гололедные отложения с указанием их диаметра в мм.
Облачность - указаны через наклонную черту общая и нижняя облачность в баллах и высота нижней границы облаков в метрах; квадратными скобками обозначены формы облаков: Ci - перистые, Cs - перисто-слоистые, Cc - перисто-кучевые, Ac - высококучевые, As - высокослоистые, Sc - слоисто-кучевые, Ns - слоисто-дождевые, Cu - кучевые, Cb - кучево-дождевые. Подробнее классификацию облаков см. в Атласе облаков (PDF).
T - Температура воздуха - температура, измеренная на высоте 2 м над землей.
Td - Температура точки росы - температура, при понижении до которой содержащийся в воздухе водяной пар достигнет насыщения.
f - Относительная влажность воздуха - влажноcть воздуха, измеренная на высоте 2 м над землей.
Te - Эффективная температура - температура, которую ощущает одетый по сезону человек в тени. Характеристика душности погоды. При расчете учитывается влияние влажности воздуха и скорости ветра на теплоощущения человека.
Tes - Эффективная температура на солнце - температура, которую ощущает человек, с поправкой на солнечный нагрев. Характеристика знойности погоды. Зависит от высоты солнца над горизонтом, облачности и скорости ветра. Ночью, в пасмурную погоду, а также при ветре 12 м/с и более поправка равна нулю.
P - Атмосферное давление - приведенное к уровню моря атмосферное давление.
Po - Атмосферное давление - измеренное на уровне метеостанции атмосферное давление.
Tmin - Минимальная температура - минимум температуры воздуха на высоте 2 м над землей.
Tmax - Максимальная температура - максимум температуры воздуха на высоте 2 м над землей.
R - Количество осадков - Количество выпавших осадков за период времени, мм. При наведении курсора мыши на число - период времени, за который выпало указанное количество осадков.
R24 - Количество осадков - Количество выпавших осадков за 24 часа, мм.
S - Снежный покров - Высота снежного покрова, см. При наведении курсора мыши на число - состояние снежного покрова и степень покрытия местности в баллах.